Powrót do katalogu

CZ-3C DEB

AktywnyHEO
NORAD 39347·DEBRIS·🇨🇳 China

Wystrzelony Oct 31, 2010 z Xichang Satellite Launch Center

Loading…

Następne Przeloty (najbliższe 24 godziny)

TLE

ŚwieżeSource: Space-Track

Epoka: Sep 14, 2026, 05:03 UTC

1 39347U 10057M   26257.21055221  .00003776  00000-0  38324-2 0  9994
2 39347  20.2072 216.8465 6592003 172.4252 207.4976  3.12284225124967

Śledź CZ-3C DEB w czasie rzeczywistym z AllMySat

Download on the App Store